Contact Us:
Email: info@sawbill.com
Phone: (218)663-7150
Fax: (218)663-7980
Mail: 4620 Sawbill Trail
Box 2129
Tofte, MN 55615


Powered by
Movable Type 3.15
 
Sawbill Weather History Archives: September 2014
Current Sawbill Weather History | « August 2014 | October 2014 »


Date

High
Temperature

Low
Temperature

Barometric
Pressure

Relative
Humidity 7AM

9 AM
Temperature

Moisture

Snow

9/30/14 51 38 29.96 98% 44 0
9/29/14 45 37 30.10 88% 38 Trace
9/28/14 76 37 30.00 93% 38 .4"
9/27/14 75 49 30.08 88% 59 0
9/26/14 72 48 30.14 85% 49 0
9/25/14 63 47 30.21 94% 50 0
9/24/14 62 47 30.16 85% 55 Trace
9/23/14 70 45 30.14 86% 47 0
9/22/14 66 46 30.12 86% 49 Trace
9/21/14 55 43 30.10 96% 46 Trace
9/20/14 61 44 30.00 77% 45 .03"
9/19/14 60 48 29.74 98% 59 .33"
9/18/14 48 38 29.94 98% 48 .09"
9/17/14 51 38 30.10 85% 38 .04"
9/16/14 60 43 29.96 85% 48 0
9/15/14 53 40 30.02 74% 43 .02"
9/14/14 53 42 30.06 94% 45 .05"
9/13/14 52 41 30.00 93% 45 .05"
9/12/14 49 41 30.20 78% 41 0
9/11/14 48 38 30.22 96% 40 .03"
9/10/14 44 38 30.08 96% 40 .03"
9/9/14 67 40 29.98 98% 40 .52"
9/8/14 70 48 29.96 89% 58 0
9/7/14 74 52 30.02 73% 56 0
9/6/14 63 50 30.04 80% 53 0
9/5/14 61 47 30.04 91% 50 .02"
9/4/14 69 53 29.94 88% 55 .19"
9/3/14 67 51 29.92 94% 53 .15"
9/2/14 68 51 29.88 88% 52 .14"
9/1/14 65 52 29.86 92% 52 .05"
 


Home I Trip Planning I Rentals and Outfitting I Reservations I Campgrounds I Sawbill Store I Sawbill News I Contact

© 1997 - 2017, Sawbill Canoe Outfitters, Inc. I Privacy Policy